Location: *
(49.1466°N, 1.6216°E)
Time: 19:02:16
(UTC+00:00)

Landsat 7 - Pass Details

Date: 25 September 2023
Orbit: 691 x 693 km, 97.9° (Epoch: 11 December)

Event Time Altitude Azimuth Distance (km) Brightness Sun altitude
Rises 19:07:47 0° 166° (SSE) 3,053 6.8 -14.1°
Reaches altitude 10° 19:10:01 10° 167° (SSE) 2,141 6.0 -14.5°
Maximum altitude 19:14:43 83° 257° (WSW) 704 3.8 -15.2°
Drops below altitude 10° 19:19:27 10° 345° (NNW) 2,159 6.8 -15.9°
Sets 19:21:43 0° 346° (NNW) 3,081 7.6 -16.3°
